Torna al catalogo

ATLAS 5 CENTAUR DEB

AttivoHEO
NORAD 44655·DEBRIS·🇺🇸 United States

Lanciato Oct 17, 2018 da Cape Canaveral Space Force Station

Loading…

Prossimi Passaggi (prossime 24 ore)

TLE

In scadenzaSource: Space-Track

Epoca: Aug 30, 2026, 09:00 UTC

1 44655U 18079R   26242.37547574 -.00000137  00000-0  00000-0 0  9999
2 44655  13.9264  13.5230 4735732 352.5422   2.2397  1.83835076 52853

Traccia ATLAS 5 CENTAUR DEB in tempo reale con AllMySat

Download on the App Store